Weather Roundup
Issued by NWS

Home | Current Version | Previous Version | Text Only | Print | Product List | Glossary On
Versions: 1 2 3 4 5 6 7 8 9 10 11 12 13 14 15 16 17 18 19 20 21 22 23 24 25 26 27 28 29 30 31 32 33 34 35 36 37 38 39 40 41 42 43 44 45 46 47 48 49 50
000
NZUS93 KARX 261610
HRRWXR

CURRENT HOURLY OBSERVATIONS ACROSS
MUCH OF THE UPPER MISSISSIPPI VALLEY
NATIONAL WEATHER SERVICE LA CROSSE WI
1100 AM CDT SAT JUL 26 2014


...SOUTHEAST MINNESOTA...


CITY           SKY/WX    TMP DP  RH WIND       PRES   REMARKS
ROCHESTER      CLOUDY    74  70  87 CALM      29.86R FOG
ROCHESTER/MAYO PTSUNNY   74  70  86 N7        29.83F
WINONA         CLOUDY    73  70  88 CALM      29.83R
AUSTIN         CLOUDY    73  72  94 CALM      29.84R
ALBERT LEA     DRIZZLE   75  72  88 NE8       29.82F
DODGE CENTER   CLOUDY    73  72  94 W3        29.86R FOG
PRESTON        CLOUDY    70  70 100 CALM      29.86S FOG
OWATONNA       PTSUNNY   75  70  83 SE5       29.84S
FARIBAULT      PTSUNNY   79  66  65 CALM      29.85R
$$

...ELSEWHERE IN MINNESOTA...


CITY           SKY/WX    TMP DP  RH WIND       PRES   REMARKS
MINNEAPOLIS    PTSUNNY   80  64  58 NE6       29.82S
INTNL FALLS    SUNNY     74  58  57 W8        29.76S
DULUTH         SUNNY     77  55  46 VRB6      29.79F
RED WING       MOSUNNY   81  68  65 N5        29.80F
REDWOOD FALLS  CLOUDY    72  70  93 CALM      29.85R FOG
MANKATO        CLOUDY    73  68  83 NW10      29.86R
WORTHINGTON    CLOUDY    73  70  88 NW9       29.94R
FAIRMONT       CLOUDY    75  64  69 N7        29.86R
$$

...SOUTHWEST WISCONSIN...


CITY           SKY/WX    TMP DP  RH WIND       PRES   REMARKS
LA CROSSE      CLOUDY    74  67  78 SW5       29.84R
PRAIRIE DU CHI PTSUNNY   73  64  74 CALM      29.83S
BOSCOBEL       CLOUDY    74  65  73 SW7       29.84S
LONE ROCK      CLOUDY    76  66  71 SW5       29.83F
PLATTEVILLE    CLOUDY    75  67  77 N5        29.86F
FORT MC COY    CLOUDY    74  66  76 W3        29.82F
CAMP DOUGLAS   PTSUNNY   73  70  88 CALM      29.82F
VIROQUA        CLOUDY    72  71  97 SW3       29.86S
WIS DELLS      CLOUDY    73  64  73 W3        29.84F
$$

...ELSEWHERE IN WISCONSIN...


CITY           SKY/WX    TMP DP  RH WIND       PRES   REMARKS
MILWAUKEE      PTSUNNY   77  62  59 CALM      29.86R
MADISON        CLOUDY    74  65  73 VRB5      29.86R
GREEN BAY      CLOUDY    72  66  81 W9        29.82R
EAU CLAIRE     MOSUNNY   81  66  60 NW7       29.80F
BLACK RVR FLS  CLOUDY    75  71  86 NW3       29.81F
MEDFORD        CLOUDY    72  68  86 W9        29.82F
WAUSAU         CLOUDY    72  67  84 W9        29.81F
WIS RAPIDS     CLOUDY    72  67  84 W6        29.83F
MARSHFIELD     CLOUDY    72  68  87 W10       29.83F FOG
RICE LAKE      SUNNY     78  55  45 N7        29.83S
$$

...NORTHEAST IOWA...


CITY           SKY/WX    TMP DP  RH WIND       PRES   REMARKS
WATERLOO       PTSUNNY   78  70  76 E7        29.80F
DUBUQUE        MOSUNNY   75  68  78 NE8       29.84F
DECORAH        CLOUDY    72  68  88 CALM      29.82F
MASON CITY     LGT RAIN  76  72  87 SW6       29.84R
CHARLES CITY   CLOUDY    73  70  88 CALM      29.85R
OELWEIN        MOSUNNY   77  72  83 NE7       29.82F
$$

...ELSEWHERE IN IOWA...


CITY           SKY/WX    TMP DP  RH WIND       PRES   REMARKS
DES MOINES     PTSUNNY   81  69  67 E7        29.84R
IOWA CITY      PTSUNNY   76  69  79 NE7       29.86R
FORT DODGE     MOSUNNY   81  73  78 S6        29.83F
MARSHALLTOWN   PTSUNNY   77  70  79 S7        29.83F
CEDAR RAPIDS   PTSUNNY   75  67  76 E5        29.86R
$$

...NORTHERN ILLINOIS...


CITY           SKY/WX    TMP DP  RH WIND       PRES   REMARKS
CHICAGO-OHARE  PTSUNNY   77  63  61 CALM      29.84R
DUPAGE         PTSUNNY   77  66  68 W6        29.85R
CHICAGO-MIDWAY CLOUDY    77  67  71 S3        29.85R
MOLINE         PTSUNNY   75  66  73 NE5       29.83R
ROCKFORD       PTSUNNY   78  66  66 N13       29.89R
STERLING       MOSUNNY   77  68  73 NE12      29.84F
PEORIA         CLOUDY    79  70  74 SE5       29.82F
$$

NOTE: "FAIR" INDICATES FEW OR NO CLOUDS BELOW 12,000 FEET WITH NO
SIGNIFICANT WEATHER AND/OR OBSTRUCTIONS TO VISIBILITY. WIND
SPEEDS ARE IN MILES-PER-HOUR.



USA.gov is the U.S. government's official web portal to all federal, state and local government web resources and services.